SL-16 DEB, 22341

Orbit data source: Space-Track

SL-16 DEB, 22341 is space debris in LEO originally from a launch on Fri, 25 Dec 1992 UTC launched from the Tyuratam Missile And Space Complex (TTMTR). Debris objects in space refer to the collection of defunct objects orbiting the Earth. Examples of debris include non-operational satellites, rocket bodies, and fragments generated from explosions, collisions, or faulty payload assembly.

Loading next visibility...
Identifier
22341, 1992-093AE
Orbit
LEO
Country
Flag of CISCIS
Related business
Manufacturer
Unknown
Mission
Spacecraft
Bus & Motor
Unknown
Mass
Unknown
Launch date (UTC)
1992-12-25 (33 years ago)
Launch vehicle
Unknown
Launch site
Tyuratam Missile And Space Complex (TTMTR)
Object type
Payload
Rocket body
Debris
Shape & HBR
Unknown shape, 0.1 m
Radar Cross Section
Small (<0.1 m²)

Expand to show TLE details & history
Last TLE update: 1 day ago

TLE from 1 day ago
0 SL-16 DEB
1 22341U 92093AE  25296.60644572  .00001040  00000-0  74955-3 0  9991
2 22341  70.7449 238.4537 0140845 344.8903 199.8003 13.94542866664712
Epoch: 2025-10-23T14:33Z
TLE epoch observation values (Epoch: 2025-10-23T14:33:16.910Z)
Latitude
-4.04786°
Longitude
169.27913°
Altitude
1,012.524 km
Speed
7.297 km/s
True Right ascension
03h 59m 27s
True Declination
-4° 01' 28"
Sunlit
Object was in full shadow at epoch
Visualization orbit readout
Latitude
Unknown
Longitude
Unknown
Altitude
Unknown
Speed
Unknown
Apparent Right ascension
Unknown
Apparent Declination
Unknown
Sunlit
N/A
Visualization observer readout
Local Sidereal Time
12:58:36
Azimuth
Unknown
Elevation
Unknown
Doppler factor
Unknown
Orbital elements
Apogee altitude
1,013.383 km
Perigee altitude
808.063 km
Semi-major axis
7,288.86 km
Eccentricity
0.01408
Inclination
70.7449°
RAAN
238.4537°
Arg. of periapsis
344.8903°
True anomaly
199.2625°
Mean anomaly
199.8003°
Eccentric anomaly
199.53052°
Mean motion
3.48782 °/min
Orbital period
103.22 mins
BSTAR
0.00074955
Loading maneuver chart data...
Computing Atmospheric mass density...

Documentation

Showing up to 5 results
|